Погода в Данилове

Россия / Владимирская область     55°24′30″N   41°24′27″E
темп.,
°C
ветер,
м/с
пор.,
м/с
влажн.,
%
обл.,
%
осадки,
мм/ч
давл.,
гПа
погр.,
м
3 марта, ср
ср300:00−2сз3109697 0.1 1007522
03:00−3сз5119097 0.2 1009640
06:00−7сз5129386 0.0 1010452
09:00−7сз5129091 0.0 1012481
12:00−3сз6108295 0.0 1012883
15:00−2зсз598571 0.1 1012960
18:00−3зюз4109099 0.1 1010411
21:00−2з5129286 0.1 1009572
4 марта, чт
чт400:00−2зюз61194100 0.3 1006879
03:00−2зюз61395100 0.6 1004809
06:00−1зюз61493100 0.5 1000860
09:00+1з71496100 1.4 9981092
12:000сз5986100 0.8 999852
15:000зсз5973100 0.9 10001150
18:00−3зсз2388100 0.0 100062
21:00−4сз2493100 0.0 100092
5 марта, пт
пт500:00−7ссз2392100 0.0 100075
03:00−9ссз2596100 0.0 1002114
06:00−9с2697100 0.1 1004152
09:00−9ссз249386 0.1 1006168
12:00−4сз238048 0.0 1007553
15:00−3з237772 0.0 1008885
18:00−7юз129084 0.0 100921
21:00−8ююз249671 0.2 1011109
6 марта, сб
сб600:00−7зсз4995100 0.4 1011390
03:00−11зсз4995100 0.4 1012243
06:00−13зсз369667 0.0 1013164
09:00−11сз369376 0.0 1014255
12:00−8сз468292 0.0 1015745
15:00−9сз467695 0.1 1015998
18:00−13зсз368964 0.0 1015146
21:00−14зюз359232 0.0 1016106
7 марта, вс
вс700:00−14зюз389227 0.0 1014176
03:00−13юз4119113 0.0 1012267
06:00−12ююз6148661 0.0 1008511
09:00−8юз8159181 0.2 1004900
12:00−5юз91690100 1.1 9991208
15:00−3юз81592100 2.1 9961212
18:00−3юз71395100 1.7 9931087
21:00−6зсз41089100 4.9 992527